Terminal Aerodrome Forecast
Issued by NWS Boston, MA

Home | Current Version | Previous Version | Text Only | Print | Product List | Glossary On
Versions: 1 2 3 4 5 6 7 8 9 10 11 12 13 14 15 16 17 18 19 20 21 22 23 24 25 26 27 28 29 30 31 32 33 34 35 36 37 38 39 40 41 42 43 44 45 46 47 48 49 50
000
FTUS41 KBOX 282322
TAFBOS
TAF
KBOS 282322Z 2900/3006 22014G24KT P6SM BKN050
     FM290300 23010KT P6SM BKN060
     FM291100 27009KT P6SM SCT060
     FM291900 23008KT P6SM SCT250
     FM300400 25004KT P6SM FEW250=

USA.gov is the U.S. government's official web portal to all federal, state and local government web resources and services.